Location: Unspecified
(34.4950°S, 58.5160°W)
Time: 14:38:22
(UTC+00:00)

Cosmos 1655 Rocket - Pass Details

Date: 02 July 2022
Orbit: 971 x 1005 km, 83.0° (Epoch: 11 August)

Event Time Altitude Azimuth Distance (km) Brightness Sun altitude
Rises 00:58:35 0° 304° (WNW) 3,722 7.5 -49.4°
Reaches altitude 10° 01:02:39 10° 278° (W) 2,787 6.8 -50.2°
Enters shadow 01:04:00 12° 266° (W) 2,613 6.7 -50.5°
